map of FRA home
FRA - Airport
Location
City:  Frankfurt, Hessen, Germany
Name:Rhein-Main
ICAO:EDDF
IATA:FRA

Details
Type:Airport (Flugplatz, Airfield)
Use:Public/Civil, International (customs port of entry)
Latitude:5002'00"N (50.033306)
Longitude:834'14"E (8.570456)
Elevation:364 ft (111 m)
Variation:2.44E (WMM2015 magnetic declination)
0.13 annual change
Runways:4
Longest:13123 × 197 ft (4000 × 60 m), paved

Time
Time Zone:UTC+1 (DST+2)
Local Time:

Weather
METAR:EDDF 211920Z 02009KT CAVOK 27/12 Q1018 NOSIG
TAF:EDDF 211700Z 2118/2224 05007KT CAVOK
BECMG 2209/2211 24006KT
BECMG 2218/2220 30004KT

Related Locations
Nearby:
Farthest:CHT: 11941 mi / 19217 km
Waitangi [Tuuta], CIT, NZ

Find:

   beyond  
but within

Other Information
Maps:
NOTAMs:
Links:
Sources:

  
  • flag of Germany
  • flag of Hessen
  • flag of Frankfurt
  

Airport Diagram

Airport diagram for FRA

Larger airport diagram (OBSOLETE) from NGA

Sectional Chart

Flight Planning
at skyvector.com

Satellite Image

Google Maps Satellite view

 

Copyright © 2004-2018 Karl L. Swartz. All rights reserved.
The Great Circle Mapper name and logo are trademarks of the Great Circle Mapper.
All other trademarks mentioned herein belong to their respective owners.
Please see credits for attibutions and further copyright information.

  Follow gcmap on Facebook Follow gcmap on Twitter Follow gcmap on Google+ GCmap on LinkedIn

hCard Microformat

Geo Microformat